Flag for Austria Weather past 2 weeks in Perg, Upper Austria, Austria

Now
75 °F

Mild.


Feels Like: 77 °F
Forecast: 67 / 89 °F
Wind: 3 mph from West

Location: Amstetten

Current Time: Aug 5, 2015 at 1:07:42 AM

Latest Report: Aug 5, 2015 at 12:00 AM


Visibility: N/A

Pressure: 29.98 "Hg

Humidity: 62%

Dew point: 61 °F

Location of PergLocation

Historic Weather in Perg — Graph

°F

Perg temperature yesterday

Maximum temperature yesterday: 92 °F (at 4:00 PM)
Minimum temperature yesterday: 61 °F (at 3:00 AM)
Average temperature yesterday: 77 °F

Past Weeks' High & Low Weather Summary

 TemperatureHumidityPressure
High97 °F (Jul 22, 4:00 PM)100% (Aug 3, 1:00 AM)30.16 "Hg (Aug 3, 1:00 AM)
Low55 °F (Jul 29, 7:00 AM)23% (Jul 31, 5:00 PM)29.67 "Hg (Jul 25, 4:00 AM)
Average71 °F66%29.92 "Hg
* Reported Jul 20 11:00 PM — Aug 4 11:00 PM, Perg, Weather by CustomWeather, © 2015

Note: Actual official high and low records may vary slightly from our data, if they occured in-between our weather recording intervals... More about our weather records

Advertising

Perg weather history for previous 24 hours

 ConditionsComfort  
Time TempWeatherWind HumidityBarometerVisibility
11:00 PM
Tue, Aug 4
73 °FMild.1 mph66%29.94 "HgN/A
10:00 PM73 °FMild.1 mph65%29.92 "HgN/A
9:00 PM81 °FWarm.1 mph46%29.89 "HgN/A
8:00 PM87 °FPleasantly warm.2 mph35%29.86 "HgN/A
7:00 PM91 °FHot.3 mph29%29.85 "HgN/A
6:00 PM92 °FHot.2 mph31%29.84 "HgN/A
5:00 PM92 °FHot.1 mph30%29.83 "HgN/A
4:00 PM92 °FHot.3 mph28%29.85 "HgN/A
3:00 PM89 °FHot.2 mph34%29.86 "HgN/A
2:00 PM88 °FHot.2 mph35%29.88 "HgN/A
1:00 PM85 °FWarm.3 mph48%29.90 "HgN/A
12:00 PM82 °FWarm.5 mph54%29.92 "HgN/A
11:00 AM78 °FWarm.3 mph62%29.94 "HgN/A
10:00 AM74 °FMild.3 mph72%29.96 "HgN/A
9:00 AM71 °FMild.3 mph78%29.97 "HgN/A
8:00 AM67 °FPassing clouds.2 mph88%29.98 "HgN/A
7:00 AM64 °FMild.1 mph95%30.00 "HgN/A
5:00 AM62 °FCool.1 mph98%30.00 "HgN/A
4:00 AM62 °FMild.1 mph98%30.01 "HgN/A
3:00 AM61 °FCool.No wind97%30.01 "HgN/A
2:00 AM63 °FMild.1 mph96%30.02 "HgN/A
1:00 AM64 °FMild.1 mph94%30.03 "HgN/A
Weather by CustomWeather, © 2015

See weather overviewHow to use our weather pages